Retour au catalogue

GLOBALSTAR M004 DEB

ActifLEO
NORAD 43356·DEBRIS·🇺🇸 United States

Lancé Feb 14, 1998 depuis Cape Canaveral Space Force Station

Loading…

Prochains Passages (prochaines 24 heures)

TLE

FraisSource: Space-Track

Époque: Sep 14, 2026, 03:15 UTC

1 43356U 98008G   26257.13565745  .00000584  00000-0  30713-2 0  9997
2 43356  51.8985 174.1632 0048798  90.0085 270.6380 12.78946568496675

Suivez GLOBALSTAR M004 DEB en temps réel avec AllMySat

Download on the App Store